Location: Six Mile Lake
(44.9000°N, 79.7170°W)
Time: 18:50:56
(UTC-04:00)

ESTCUBE 1 - Pass Details

Date: 02 July 2022
Orbit: 646 x 657 km, 97.9° (Epoch: 07 August)

Event Time Altitude Azimuth Distance (km) Brightness Sun altitude
Exits shadow 22:55:52 23° 133° (SE) 1,390 ? -14.3°
Maximum altitude 22:58:22 47° 71° (ENE) 866 ? -14.5°
Drops below altitude 10° 23:02:39 10° 358° (N) 2,060 ? -15.0°
Sets 23:04:56 0° 353° (N) 2,977 ? -15.2°
